Weather History for KTDZ - April, 2013

Change the Weather History Date:

Sunday, April 21, 2013

  Actual Average (KTOL) Record (KTOL)
Temperature  
Mean Temperature 37 °F 52 °F  
Max Temperature 46 °F 62 °F 87 °F (1987)
Min Temperature 28 °F 41 °F 22 °F (1875)
Degree Days  
Heating Degree Days 28 14  
Month to date heating degree days 367  
Since 1 July heating degree days 5793  
Cooling Degree Days 0 0  
Month to date cooling degree days 0  
Year to date cooling degree days 0  
Moisture  
Dew Point 26 °F    
Average Humidity 62    
Maximum Humidity 78    
Minimum Humidity 51    
Precipitation  
Precipitation 0.00 in 0.12 in - ()
Month to date precipitation 2.25  
Year to date precipitation 8.85  
Snow  
Snow 0.00 in 0.00 in - ()
Month to date snowfall 1.2  
Since 1 July snowfall 37.4  
Snow Depth -    
Sea Level Pressure  
Sea Level Pressure 30.55 in    
Wind  
Wind Speed 5 mph (ENE)    
Max Wind Speed 14 mph    
Max Gust Speed 21 mph    
Visibility 10 miles    
Events      
T = Trace of Precipitation, MM = Missing Value Source: NWS Daily Summary

Daily Weather History Graph

Daily Weather History Graph

Search for Another Location

Airport or City:

Trip Planner

Search our weather history database for the weather conditions in past years. The results will help you decide how hot, cold, wet, or windy it might be!

Date:

Astronomy

Apr. 21, 2013 Rise Set
Actual Time 6:44 AM EDT 8:21 PM EDT
Civil Twilight 6:15 AM EDT 8:50 PM EDT
Nautical Twilight 5:39 AM EDT 9:26 PM EDT
Astronomical Twilight 5:02 AM EDT 10:04 PM EDT
Moon 4:02 PM EDT (4/21) 4:09 AM EDT (4/21)
Length of Visible Light 14h 35m
Length of Day
13h 36m
Waxing Gibbous, 79% of the Moon is Illuminated
Apr 21
Waxing Gibbous
Apr 25
Full
May 2
Last Quarter
May 9
New
May 18
First Quarter

Hourly Weather History & Observations

Time (EDT) Temp. Windchill Dew Point Humidity Pressure Visibility Wind Dir Wind Speed Gust Speed Precip Events Conditions
12:53 AM 33.1 °F 30.0 °F 19.0 °F 56% 30.48 in 10.0 mi North 3.5 mph - N/A   Clear
1:53 AM 32.0 °F 28.7 °F 19.0 °F 59% 30.50 in 10.0 mi North 3.5 mph - N/A   Clear
2:53 AM 33.1 °F 30.0 °F 19.0 °F 56% 30.50 in 10.0 mi North 3.5 mph - N/A   Clear
3:53 AM 30.0 °F - 19.9 °F 66% 30.52 in 10.0 mi Calm Calm - N/A   Clear
4:53 AM 28.9 °F - 19.9 °F 69% 30.53 in 10.0 mi Calm Calm - N/A   Clear
5:53 AM 28.0 °F - 21.0 °F 75% 30.55 in 10.0 mi Calm Calm - N/A   Clear
6:53 AM 28.9 °F - 21.0 °F 72% 30.57 in 10.0 mi Calm Calm - N/A   Clear
7:53 AM 32.0 °F - 24.1 °F 73% 30.60 in 10.0 mi Calm Calm - N/A   Clear
8:53 AM 37.9 °F 32.7 °F 27.0 °F 65% 30.62 in 10.0 mi ESE 6.9 mph - N/A   Clear
9:53 AM 39.9 °F 32.9 °F 26.1 °F 58% 30.63 in 10.0 mi ESE 11.5 mph - N/A   Partly Cloudy
10:53 AM 42.1 °F 35.7 °F 26.1 °F 53% 30.63 in 10.0 mi ESE 11.5 mph - N/A   Mostly Cloudy
11:53 AM 44.1 °F 39.5 °F 27.0 °F 51% 30.63 in 10.0 mi East 8.1 mph - N/A   Mostly Cloudy
12:53 PM 44.1 °F 39.0 °F 28.0 °F 53% 30.61 in 10.0 mi East 9.2 mph - N/A   Mostly Cloudy
1:53 PM 45.0 °F 39.7 °F 28.9 °F 53% 30.59 in 10.0 mi NE 10.4 mph - N/A   Partly Cloudy
2:53 PM 46.0 °F 40.2 °F 28.9 °F 51% 30.57 in 10.0 mi East 12.7 mph - N/A   Clear
3:53 PM 45.0 °F 39.3 °F 28.9 °F 53% 30.55 in 10.0 mi ENE 11.5 mph 17.3 mph N/A   Clear
4:53 PM 44.1 °F 37.4 °F 28.9 °F 55% 30.53 in 10.0 mi ENE 13.8 mph 19.6 mph N/A   Clear
5:53 PM 44.1 °F 37.7 °F 28.0 °F 53% 30.53 in 10.0 mi ENE 12.7 mph 20.7 mph N/A   Clear
6:53 PM 43.0 °F 36.4 °F 28.0 °F 56% 30.53 in 10.0 mi East 12.7 mph - N/A   Clear
7:53 PM 39.9 °F 33.9 °F 30.0 °F 68% 30.52 in 10.0 mi East 9.2 mph 18.4 mph N/A   Clear
8:53 PM 37.9 °F 32.7 °F 28.0 °F 68% 30.52 in 10.0 mi East 6.9 mph - N/A   Clear
9:53 PM 36.0 °F 31.1 °F 28.9 °F 76% 30.52 in 10.0 mi East 5.8 mph - N/A   Clear
10:53 PM 35.1 °F 31.0 °F 28.0 °F 76% 30.51 in 10.0 mi East 4.6 mph - N/A   Clear
11:53 PM 35.1 °F 31.0 °F 28.9 °F 78% 30.48 in 10.0 mi East 4.6 mph - N/A   Clear